Flag for Canada Weather past 2 weeks in Saskatoon, Saskatchewan, Canada

Now
57 °F

Passing clouds.


Feels Like: 53 °F
Forecast: N/A
Wind: 23 mph from North

Location: Saskatoon Weather Station

Current Time: May 28, 2015 at 5:20:48 PM

Latest Report: May 28, 2015 at 4:00 PM


Visibility: 15 mi

Pressure: 30.21 "Hg

Humidity: 33%

Dew point: 28 °F

Location of SaskatoonLocation

Historic Weather in Saskatoon — Graph

°F

Saskatoon temperature yesterday

Maximum temperature yesterday: 70 °F (at 5:00 PM)
Minimum temperature yesterday: 45 °F (at 5:00 AM)
Average temperature yesterday: 57 °F

Past Weeks' High & Low Weather Summary

 TemperatureHumidityPressure
High82 °F (May 24, 2:00 PM)100% (May 14, 6:00 AM)30.59 "Hg (May 14, 6:00 AM)
Low25 °F (May 18, 6:00 AM)12% (May 19, 5:00 PM)29.81 "Hg (May 25, 5:00 PM)
Average57 °F45%30.14 "Hg
* Reported May 13 3:00 PM — May 28 3:00 PM, Saskatoon, Weather by CustomWeather, © 2015

Note: Actual official high and low records may vary slightly from our data, if they occured in-between our weather recording intervals... More about our weather records

Advertising

Saskatoon weather history for previous 24 hours

 ConditionsComfort  
Time TempWeatherWind HumidityBarometerVisibility
3:00 PM
Thu, May 28
57 °FPassing clouds.21 mph36%30.20 "Hg15 mi
2:00 PM55 °FPassing clouds.21 mph41%30.19 "Hg15 mi
1:00 PM52 °FPartly sunny.22 mph54%30.19 "Hg15 mi
12:00 PM48 °FPartly sunny.24 mph76%30.16 "Hg15 mi
11:00 AM46 °FOvercast.23 mph87%30.14 "Hg15 mi
10:00 AM48 °FMostly cloudy.24 mph87%30.09 "Hg15 mi
9:00 AM52 °FSprinkles. More clouds than sun.18 mph82%30.05 "Hg15 mi
8:00 AM52 °FMore clouds than sun.16 mph94%30.00 "Hg15 mi
7:00 AM54 °FScattered showers. Mostly cloudy.17 mph88%29.98 "Hg12 mi
6:00 AM57 °FScattered showers. Partly sunny.8 mph67%29.95 "Hg12 mi
5:00 AM50 °FPartly sunny.5 mph71%29.95 "Hg12 mi
4:00 AM54 °FPartly cloudy.6 mph63%29.95 "Hg15 mi
3:00 AM55 °FPassing clouds.5 mph55%29.92 "Hg15 mi
2:00 AM54 °FPassing clouds.8 mph58%29.93 "Hg15 mi
1:00 AM55 °FPassing clouds.6 mph51%29.94 "Hg15 mi
12:00 AM55 °FClear.8 mph51%29.95 "Hg15 mi
11:00 PM
Wed, May 27
57 °FPassing clouds.8 mph48%29.97 "Hg15 mi
10:00 PM57 °FPassing clouds.7 mph51%29.98 "Hg15 mi
9:00 PM63 °FPartly sunny.3 mph45%29.98 "Hg15 mi
8:00 PM64 °FPartly sunny.5 mph43%29.98 "Hg15 mi
7:00 PM70 °FPartly sunny.5 mph29%29.98 "Hg15 mi
6:00 PM70 °FPartly sunny.3 mph29%29.98 "Hg15 mi
5:00 PM70 °FPartly sunny.2 mph29%29.99 "Hg15 mi
Weather by CustomWeather, © 2015

See weather overviewHow to use our weather pages